KF4URA Weather Reports


Display with metric or nautical units.
time (UTC)temp
F
wind
direction
speed
MPH
gust
MPH
rain 1hr
in
rain 24hr
in
rain mn
in
humidity
%
barometer
mb
20260831233533 83 208 0.0 0.0 0.00 0.00 0.00 78 1015.6
20260831231408 83 208 0.0 0.0 0.00 0.00 0.00 76 1015.6
20260831230409 83 208 0.0 0.0 0.00 0.00 0.00 76 1015.5
20260831225406 83 208 0.0 0.0 0.00 0.00 0.00 75 1015.5
20260831224341 83 208 0.0 0.0 0.00 0.00 0.00 74 1015.5
20260831223311 83 208 0.0 0.0 0.00 0.00 0.00 74 1015.5
20260831222251 84 208 0.0 0.0 0.00 0.00 0.00 73 1015.2
20260831221302 84 208 0.0 0.0 0.00 0.00 0.00 72 1015.1
20260831220237 84 208 0.0 0.0 0.00 0.00 0.00 71 1015.0
20260831215219 84 208 0.0 0.0 0.00 0.00 0.00 70 1015.0
20260831213014 84 208 0.0 0.0 0.00 0.00 0.00 69 1015.0
20260831211947 85 209 0.0 1.0 0.00 0.00 0.00 69 1015.2
20260831210950 85 209 0.0 0.0 0.00 0.00 0.00 71 1015.3
20260831204858 85 208 0.0 2.0 0.00 0.00 0.00 69 1015.5
20260831201600 85 212 0.0 0.0 0.00 0.00 0.00 71 1015.9
20260831194301 85 212 0.0 0.0 0.00 0.00 0.00 71 1016.2
20260831193317 85 212 0.0 0.0 0.00 0.00 0.00 71 1016.3
20260831192305 85 212 0.0 1.0 0.00 0.00 0.00 69 1016.3
20260831191231 85 212 0.0 5.0 0.00 0.00 0.00 69 1016.4
20260831190159 85 180 0.0 2.0 0.00 0.00 0.00 69 1016.4
20260831185210 86 295 0.0 1.0 0.00 0.00 0.00 69 1016.5
20260831184145 86 277 0.0 1.0 0.00 0.00 0.00 69 1016.7
20260831182014 86 189 0.0 0.0 0.00 0.00 0.00 67 1016.9
20260831180959 86 287 1.0 5.0 0.00 0.00 0.00 66 1017.0
20260831180005 87 225 1.0 3.0 0.00 0.00 0.00 67 1017.0
20260831175024 87 291 2.0 5.0 0.00 0.00 0.00 65 1017.1
20260831174012 87 289 1.0 5.0 0.00 0.00 0.00 66 1017.1
20260831173003 86 255 1.0 3.0 0.00 0.00 0.00 66 1017.2
20260831171952 86 254 1.0 6.0 0.00 0.00 0.00 66 1017.3
20260831170958 86 294 1.0 6.0 0.00 0.00 0.00 64 1017.3
20260831165933 86 180 0.0 3.0 0.00 0.00 0.00 64 1017.4
20260831164906 86 190 0.0 2.0 0.00 0.00 0.00 65 1017.5
20260831163833 87 260 1.0 3.0 0.00 0.00 0.00 64 1017.5
20260831162838 86 282 1.0 3.0 0.00 0.00 0.00 64 1017.6
20260831161819 86 286 0.0 4.0 0.00 0.00 0.00 65 1017.5
20260831160836 85 291 1.0 5.0 0.00 0.00 0.00 69 1017.6
20260831155817 84 231 0.0 3.0 0.00 0.00 0.00 71 1017.6
20260831153651 83 182 0.0 5.0 0.00 0.00 0.00 73 1017.5
20260831152705 82 173 0.0 0.0 0.00 0.00 0.00 75 1017.4
20260831151643 82 173 0.0 0.0 0.00 0.00 0.00 76 1017.5
20260831145538 81 175 0.0 1.0 0.00 0.00 0.00 76 1017.4
20260831144537 80 175 0.0 0.0 0.00 0.00 0.00 78 1017.4
20260831143505 79 311 0.0 0.0 0.00 0.00 0.00 81 1017.3
20260831142433 78 311 0.0 0.0 0.00 0.00 0.00 82 1017.2
20260831141410 78 311 0.0 0.0 0.00 0.00 0.00 82 1017.1
20260831140340 77 311 0.0 0.0 0.00 0.00 0.00 82 1017.0
20260831134200 76 311 0.0 0.0 0.00 0.00 0.00 84 1017.1
20260831133158 75 311 0.0 0.0 0.00 0.00 0.00 86 1017.2
20260831131030 74 311 0.0 0.0 0.00 0.00 0.00 88 1017.4
20260831130048 73 311 0.0 0.0 0.00 0.00 0.00 90 1017.3
20260831125104 73 311 0.0 0.0 0.00 0.00 0.00 91 1017.3
20260831124123 73 311 0.0 0.0 0.00 0.00 0.00 92 1017.3
20260831123105 72 311 0.0 0.0 0.00 0.00 0.00 93 1017.3
20260831122108 72 311 0.0 0.0 0.00 0.00 0.00 93 1017.3
20260831121116 72 311 0.0 0.0 0.00 0.00 0.00 93 1017.2
20260831120051 71 325 0.0 0.0 0.00 0.00 0.00 93 1017.1
20260831115052 71 325 0.0 0.0 0.00 0.00 0.00 93 1016.9
20260831114046 71 325 0.0 0.0 0.00 0.00 0.00 94 1016.8
20260831113015 71 325 0.0 0.0 0.00 0.00 0.00 94 1016.7
20260831112016 71 318 0.0 0.0 0.00 0.00 0.00 94 1016.7
20260831111019 71 318 0.0 0.0 0.00 0.00 0.00 94 1016.6
20260831110042 71 119 0.0 0.0 0.00 0.00 0.00 95 1016.5
20260831105057 71 119 0.0 0.0 0.00 0.00 0.00 95 1016.5
20260831104118 71 119 0.0 0.0 0.00 0.00 0.00 95 1016.6
20260831103106 71 119 0.0 0.0 0.00 0.00 0.00 95 1016.6
20260831102127 71 119 0.0 0.0 0.00 0.00 0.00 95 1016.5
20260831101107 71 119 0.0 0.0 0.00 0.00 0.00 95 1016.5
20260831100114 71 119 0.0 0.0 0.00 0.00 0.00 95 1016.5
20260831095047 71 119 0.0 0.0 0.00 0.00 0.00 95 1016.5
20260831094029 71 119 0.0 0.0 0.00 0.00 0.00 95 1016.5
20260831093048 71 119 0.0 0.0 0.00 0.00 0.00 95 1016.6
20260831090900 71 119 0.0 0.0 0.00 0.00 0.00 95 1016.6
20260831085837 71 119 0.0 0.0 0.00 0.00 0.00 95 1016.6
20260831083645 71 119 0.0 0.0 0.00 0.00 0.00 95 1016.5
20260831082642 71 119 0.0 0.0 0.00 0.00 0.00 95 1016.4
20260831081650 71 119 0.0 0.0 0.00 0.00 0.00 94 1016.3
20260831080704 71 119 0.0 0.0 0.00 0.00 0.00 95 1016.2
20260831075710 71 119 0.0 0.0 0.00 0.00 0.00 94 1016.2
20260831074702 71 119 0.0 0.0 0.00 0.00 0.00 94 1016.3
20260831072553 70 119 0.0 0.0 0.00 0.00 0.00 94 1016.4
20260831071608 70 119 0.0 0.0 0.00 0.00 0.00 94 1016.5
20260831070542 70 119 0.0 0.0 0.00 0.00 0.00 94 1016.4
20260831064432 70 119 0.0 0.0 0.00 0.00 0.00 94 1016.7
20260831063408 70 119 0.0 0.0 0.00 0.00 0.00 94 1016.8
20260831062426 70 119 0.0 0.0 0.00 0.00 0.00 94 1016.9
20260831061445 70 119 0.0 0.0 0.00 0.00 0.00 93 1016.9
20260831060443 70 119 0.0 0.0 0.00 0.00 0.00 93 1016.9
20260831055410 70 119 0.0 0.0 0.00 0.00 0.00 93 1016.9
20260831054418 70 119 0.0 0.0 0.00 0.00 0.00 93 1017.0
20260831053439 70 119 0.0 0.0 0.00 0.00 0.00 93 1017.0
20260831052445 71 119 0.0 0.0 0.00 0.00 0.00 93 1017.1
20260831045207 71 119 0.0 0.0 0.00 0.00 0.00 93 1017.1
20260831044151 71 119 0.0 0.0 0.00 0.00 0.00 92 1017.1
20260831042022 71 119 0.0 0.0 0.00 0.00 0.00 92 1017.2
20260831035947 71 119 0.0 0.0 0.00 0.00 0.00 92 1017.3
20260831035002 71 119 0.0 0.0 0.00 0.00 0.00 92 1017.3
20260831034006 72 119 0.0 0.0 0.00 0.00 0.00 91 1017.4
20260831033009 72 119 0.0 0.0 0.00 0.00 0.00 91 1017.3
20260831031952 72 119 0.0 0.0 0.00 0.00 0.00 91 1017.3
20260831030924 72 119 0.0 0.0 0.00 0.00 0.00 90 1017.5
20260831025853 72 119 0.0 0.0 0.00 0.00 0.00 90 1017.4
20260831024918 72 119 0.0 0.0 0.00 0.00 0.00 89 1017.3
20260831023858 73 119 0.0 0.0 0.00 0.00 0.00 89 1017.3
20260831022832 73 119 0.0 0.0 0.00 0.00 0.00 89 1017.3
20260831020659 73 119 0.0 0.0 0.00 0.00 0.00 88 1017.6
20260831015648 74 119 0.0 0.0 0.00 0.00 0.00 87 1017.6
20260831014702 74 119 0.0 0.0 0.00 0.00 0.00 87 1017.6
20260831013711 74 119 0.0 0.0 0.00 0.00 0.00 86 1017.6
20260831012648 74 119 0.0 0.0 0.00 0.00 0.00 85 1017.6
20260831011643 75 119 0.0 0.0 0.00 0.00 0.00 84 1017.5
20260831005505 76 119 0.0 0.0 0.00 0.00 0.00 83 1017.5
20260831004527 76 119 0.0 0.0 0.00 0.00 0.00 82 1017.4
20260831003531 77 119 0.0 0.0 0.00 0.00 0.00 81 1017.3
20260831002524 77 119 0.0 0.0 0.00 0.00 0.00 80 1017.1
20260831001542 78 119 0.0 0.0 0.00 0.00 0.00 79 1017.0
20260831000518 78 119 0.0 0.0 0.00 0.00 0.00 79 1016.9
20260830235510 79 119 0.0 0.0 0.00 0.00 0.00 77 1016.8
20260830234534 80 119 0.0 0.0 0.00 0.00 0.00 76 1016.6